Theta_e
314 313 322 312 313 311 315 315 321 324 325 345 344 348 351 350 354 356 346 351 353 347 343 336 328 324 325 333 335 337 337 337 337 335 334 334 335 336 335 329 325 326 327 332 333 330 329 325 323
312 323 321 307 307 307 307 314 320 320 322 318 338 347 349 351 351 350 349 352 352 353 345 335 330 324 323 328 329 330 334 336 336 335 334 335 336 336 332 326 326 329 331 330 330 327 325 323 322
318 323 315 312 304 305 306 308 313 314 312 316 328 344 348 353 353 347 349 352 354 354 348 335 332 324 323 327 326 326 329 332 333 333 334 335 335 332 326 327 329 330 331 329 327 325 323 322 322
316 316 314 317 316 311 307 311 310 312 313 313 316 315 326 348 352 351 346 351 353 352 347 336 331 325 324 327 325 325 329 331 332 334 334 333 331 327 328 329 330 331 330 327 325 324 322 322 323
315 312 318 319 319 315 311 313 314 314 313 313 313 315 323 338 351 349 348 352 353 353 348 339 331 325 325 327 327 325 329 332 332 333 332 332 328 329 331 330 331 331 328 325 324 324 322 322 325
313 311 315 315 314 314 314 313 313 314 313 312 314 316 328 345 347 352 351 352 353 353 348 342 333 325 326 327 328 325 326 329 331 331 333 332 329 332 333 332 331 329 326 324 324 323 324 327 332
314 313 316 315 316 317 316 313 314 315 315 314 315 317 322 340 336 351 351 351 354 352 349 344 341 327 327 328 328 328 327 328 329 334 335 332 330 333 333 331 329 326 324 324 323 324 328 335 342
306 309 313 313 315 315 314 312 312 314 315 315 314 316 315 315 321 347 351 349 352 353 351 347 340 340 332 330 328 328 328 330 333 335 334 330 331 333 331 328 326 325 324 323 324 328 334 341 347
306 308 308 310 312 312 310 311 312 313 314 315 315 315 316 317 340 347 348 348 350 352 352 349 346 340 335 333 330 328 328 330 333 336 332 330 332 332 329 327 325 325 323 324 329 334 339 345 344
308 307 308 308 311 311 310 309 310 312 312 313 313 314 315 323 344 347 348 348 350 351 352 351 348 345 333 333 336 331 330 331 333 336 331 331 332 330 327 326 325 324 323 327 333 338 341 344 343
307 309 308 310 310 309 310 310 311 312 311 312 312 313 314 330 344 346 348 348 349 350 350 351 351 347 339 337 335 335 335 333 334 334 330 331 331 329 327 325 325 324 325 328 331 337 341 344 345
311 310 310 310 310 309 310 312 312 311 311 311 311 312 313 315 333 343 347 349 349 349 349 350 350 348 343 340 339 334 335 333 335 334 330 332 331 328 326 325 327 331 332 334 335 338 343 348 345
309 310 311 309 307 306 308 310 312 312 313 313 310 311 312 315 322 344 346 348 348 348 348 348 349 349 344 341 341 336 331 331 332 333 330 330 329 326 325 328 335 337 337 338 339 340 348 346 338
308 308 308 307 307 306 308 309 311 312 312 312 311 312 313 315 319 324 342 346 346 346 347 347 347 348 345 343 340 337 333 329 330 331 329 329 327 326 325 334 337 337 339 341 346 345 345 340 330
307 307 306 307 307 308 310 310 312 312 311 310 310 311 312 314 320 333 337 345 346 346 346 346 346 347 345 345 340 338 334 331 330 329 328 328 327 327 336 338 337 338 343 347 346 346 337 330 325
308 306 307 307 308 308 309 312 310 311 310 309 310 312 312 312 317 332 345 345 345 345 346 346 345 344 344 345 341 339 337 333 330 328 327 327 326 332 338 341 338 341 347 347 342 335 330 327 322
310 312 310 312 308 310 309 311 309 309 309 309 309 309 311 312 312 320 346 345 344 344 343 345 345 343 344 344 341 339 338 336 333 330 328 327 324 332 340 341 338 344 346 340 335 333 330 327 325
316 315 314 316 314 315 315 315 315 314 308 309 307 308 310 311 312 315 333 346 345 344 341 341 344 343 343 343 341 339 338 338 335 331 329 326 327 333 341 340 339 344 342 337 334 333 328 326 324
316 315 316 317 316 315 316 318 317 316 308 308 307 307 308 310 311 313 315 339 343 343 342 339 341 343 342 342 340 338 338 338 336 332 329 329 329 336 343 342 344 344 340 335 333 331 327 326 323
318 319 320 319 318 317 318 318 316 314 314 312 311 309 308 309 311 313 321 336 340 341 341 339 338 339 339 341 339 337 337 337 336 331 330 335 335 341 342 342 342 338 337 336 333 332 327 323 320
318 319 319 320 319 319 320 321 318 315 314 314 313 312 310 309 310 315 335 341 341 341 340 340 339 337 337 338 336 335 335 335 334 335 336 340 341 341 341 340 339 338 338 336 333 330 326 323 319
320 318 319 321 323 325 319 324 319 317 315 313 311 310 310 310 311 313 332 338 342 340 340 336 338 337 337 335 334 337 337 337 336 333 339 341 343 342 342 340 339 338 336 334 328 325 323 322 320
320 319 321 322 324 325 325 325 321 316 316 315 314 310 308 310 311 313 334 341 341 339 339 339 339 338 337 338 336 341 342 340 340 339 340 342 342 342 340 338 336 335 331 327 324 321 320 317 315
317 320 320 322 323 325 319 322 318 317 314 313 312 310 310 310 310 316 333 342 341 339 338 337 338 339 340 341 340 341 344 343 341 340 341 341 341 338 336 335 333 330 326 323 322 318 315 314 314
317 321 327 319 325 325 318 320 319 319 323 318 312 310 310 311 310 318 337 343 341 340 338 337 338 338 341 341 339 339 342 344 341 340 340 340 338 335 333 333 330 325 322 320 318 315 315 313 313
318 323 326 328 329 328 321 323 318 324 325 324 325 317 309 307 308 319 338 341 343 340 338 337 337 336 338 339 338 337 339 344 341 339 338 336 336 335 331 329 324 321 319 316 315 314 312 312 312
324 327 323 322 325 327 322 319 318 323 325 325 325 325 324 311 311 324 336 338 343 340 340 338 335 334 335 336 335 334 343 343 343 339 336 336 337 332 329 327 322 317 315 314 313 311 311 311 310
322 322 328 324 326 329 328 329 331 327 326 325 327 326 323 323 319 327 333 337 341 342 340 339 335 332 333 335 336 334 335 341 340 337 335 335 331 329 327 320 316 315 314 312 311 311 310 310 309
324 325 326 326 325 329 330 332 328 325 328 327 326 327 324 323 318 330 333 336 337 340 338 331 330 330 331 333 333 333 333 340 336 332 333 331 328 325 320 317 315 313 312 311 311 310 309 308 306
320 324 325 329 331 323 326 329 327 322 328 328 328 328 327 323 322 327 332 334 332 332 331 329 329 329 331 339 341 337 335 333 331 328 327 326 322 321 316 313 313 312 311 310 309 308 307 306 304
Wind_Speed
11 4 1 4 3 5 4 6 2 2 1 3 4 4 7 4 6 5 11 26 22 43 45 43 36 32 30 29 30 30 30 31 31 30 28 28 26 23 20 18 17 16 16 14 12 10 8 7 6
10 3 4 2 4 2 5 4 5 7 3 8 5 2 2 7 4 7 1 20 26 33 45 46 39 35 33 30 29 30 31 31 31 29 28 27 24 21 20 19 17 16 14 12 10 9 7 6 5
3 2 3 4 5 6 5 5 2 2 7 4 4 3 3 5 2 3 4 21 27 32 35 41 43 38 35 33 31 30 31 32 31 30 29 26 23 21 20 19 17 14 12 10 8 8 6 5 5
1 4 4 3 8 5 4 3 3 5 5 3 4 7 6 8 5 6 9 25 28 35 38 40 41 40 38 35 33 32 32 32 32 30 27 25 23 21 20 18 15 12 10 8 7 7 5 5 5
4 3 1 2 4 3 3 5 2 5 3 6 4 6 5 3 5 6 16 29 33 33 34 39 38 40 40 37 35 34 32 32 31 29 27 24 23 21 18 16 13 11 8 6 4 4 4 5 4
4 3 2 6 3 2 5 3 2 2 3 7 6 8 6 8 9 5 18 30 32 34 34 36 37 37 39 38 36 35 34 32 30 28 26 24 22 20 17 15 13 10 7 4 2 1 3 4 4
5 4 4 3 3 1 0 6 3 2 5 4 5 5 6 8 14 7 15 25 27 31 33 36 33 36 38 37 37 35 34 33 30 28 26 23 21 19 16 14 12 9 7 4 1 1 2 3 4
4 3 1 3 2 2 0 6 3 4 6 8 5 5 8 9 30 12 20 21 30 30 31 35 37 30 34 35 35 35 34 32 30 28 26 24 21 19 16 14 12 9 6 3 1 0 2 4 5
4 3 1 4 2 2 6 6 5 3 6 3 5 14 12 34 23 21 22 20 24 29 31 32 35 36 33 34 33 33 33 32 29 28 26 25 23 19 16 13 11 8 6 4 2 1 2 4 6
4 3 5 5 3 6 5 5 7 5 9 5 11 17 16 25 2 8 14 21 23 29 32 32 33 36 38 35 31 32 32 32 31 29 27 25 22 19 16 13 10 8 6 4 2 1 1 3 2
1 4 4 5 8 5 3 7 4 5 6 7 8 13 15 9 5 5 6 10 19 24 30 31 31 35 37 36 36 31 31 32 32 30 28 26 22 19 16 13 11 8 6 4 2 2 2 3 2
2 8 7 5 4 6 8 4 5 9 10 9 10 15 13 13 9 8 10 9 12 18 21 28 31 33 35 31 36 36 33 31 32 31 29 26 24 21 17 13 10 9 6 4 4 4 6 6 5
5 4 4 7 10 8 10 11 10 11 13 15 11 13 14 12 11 15 21 20 15 16 21 21 25 30 34 33 34 35 34 32 32 30 28 26 23 21 17 13 10 8 6 6 6 6 2 6 4
3 7 11 8 13 7 10 15 6 8 11 13 10 11 12 11 11 12 14 18 27 25 22 21 21 22 26 32 36 37 35 32 31 30 28 25 22 19 16 12 9 7 6 6 6 8 6 4 2
5 7 7 5 4 6 2 8 9 12 9 8 6 8 10 10 14 10 21 22 27 30 27 24 24 20 21 24 33 37 35 33 30 28 26 24 21 17 13 10 8 5 5 5 10 8 5 2 1
6 2 5 5 8 6 5 16 6 9 3 8 9 6 8 11 10 12 20 23 25 29 30 29 26 21 23 22 28 34 35 33 29 27 25 23 21 17 12 10 9 8 9 10 9 7 3 1 1
3 6 6 9 5 5 5 14 5 6 12 18 9 7 8 9 11 18 20 25 28 29 30 32 30 24 24 25 29 31 33 31 29 26 24 22 21 18 12 12 12 12 12 10 7 4 3 0 2
8 9 9 15 5 12 19 24 25 13 10 16 10 7 8 9 12 17 17 26 26 28 29 28 28 28 23 25 25 30 30 28 25 25 25 22 21 18 14 13 14 15 13 11 7 4 4 2 5
14 13 18 23 16 13 19 24 25 21 10 14 9 8 8 10 10 20 26 19 28 28 32 31 32 30 27 27 27 25 27 27 25 24 23 23 23 19 18 16 17 16 13 10 7 5 3 6 6
11 15 23 18 13 9 17 25 22 23 19 15 15 11 10 9 8 10 20 18 25 33 36 36 32 30 28 32 29 22 28 27 27 24 23 22 22 20 19 19 18 16 13 9 7 3 2 5 9
12 10 18 21 21 15 21 28 18 16 20 18 17 17 12 13 13 10 9 12 22 26 28 24 26 30 33 32 26 19 22 18 23 22 21 20 20 22 20 19 16 13 9 7 4 3 2 3 7
7 5 11 15 11 10 4 15 17 15 17 14 14 13 15 15 14 12 8 8 19 25 31 30 28 36 34 30 30 27 25 20 21 26 22 20 20 21 19 18 15 12 9 8 7 5 5 3 1
11 15 14 17 14 12 16 7 8 8 13 19 17 12 10 14 16 13 11 18 23 30 34 36 39 38 36 32 31 26 19 23 22 25 23 21 21 19 20 17 15 13 11 10 9 9 7 5 4
12 7 19 9 2 3 7 6 7 6 8 13 6 10 13 14 15 13 13 22 25 30 34 36 41 41 40 37 31 23 17 21 24 24 26 25 23 21 19 17 15 13 12 11 11 11 9 10 11
5 11 5 5 1 4 7 3 8 10 13 9 10 10 11 14 13 13 11 16 21 26 29 35 39 41 44 43 35 27 21 24 26 33 34 33 29 26 21 18 15 15 14 13 13 12 12 11 11
8 2 2 6 6 11 5 5 5 10 13 12 8 7 8 9 13 12 14 17 24 31 34 35 37 37 41 44 41 30 28 31 23 27 33 33 34 29 23 19 18 17 15 16 14 15 13 11 12
3 5 4 5 5 4 3 5 5 16 16 17 12 6 4 2 8 12 13 16 23 31 35 37 31 25 27 28 33 28 28 35 37 32 32 34 30 29 26 21 21 20 18 16 15 15 13 12 13
2 8 3 3 5 4 4 2 4 21 25 21 17 12 8 8 6 8 12 15 22 24 23 26 24 21 27 28 30 30 28 30 37 38 35 33 33 30 28 26 24 22 20 17 14 15 13 14 15
4 7 4 3 4 3 4 1 4 15 19 18 17 13 7 11 5 8 13 14 19 22 22 24 29 28 26 26 29 31 32 29 32 36 37 37 34 32 31 27 24 23 20 17 16 15 14 15 15
6 7 6 3 7 2 3 3 6 17 15 14 15 14 10 11 4 8 10 11 13 18 20 22 27 29 30 28 27 30 40 36 35 36 39 39 38 32 29 28 25 22 18 16 15 17 16 15 16
Wind_Direction
345 344 100 51 72 62 263 250 282 212 161 349 127 145 194 166 173 214 319 192 178 170 169 167 167 165 169 170 166 164 162 159 159 160 161 160 160 160 159 158 155 154 152 150 145 135 125 116 103
348 86 66 75 112 152 257 250 198 231 305 317 277 150 221 246 251 283 294 174 179 169 170 167 167 167 170 172 170 168 168 165 165 165 165 163 163 164 163 160 157 157 155 151 145 133 119 104 87
32 53 97 142 165 190 207 223 249 299 303 322 313 229 256 223 264 263 206 174 172 171 175 173 165 168 171 172 170 170 170 167 165 167 166 166 167 167 162 160 159 159 158 155 144 128 113 94 74
76 19 35 131 225 254 199 105 355 1 332 357 329 292 289 234 172 210 179 182 178 177 179 175 170 168 170 171 170 170 171 167 166 167 169 167 168 166 163 163 163 163 164 158 145 126 107 87 68
47 55 114 250 256 258 250 302 9 338 258 281 321 298 266 308 201 203 175 178 183 178 181 177 177 171 171 170 172 172 172 171 170 171 170 170 167 166 166 166 167 168 166 161 144 111 100 87 68
46 95 91 244 211 261 294 245 130 295 312 301 5 310 263 16 13 170 172 171 174 173 178 179 181 177 173 171 175 174 174 176 175 173 174 171 169 167 169 170 170 172 173 168 152 84 69 84 71
115 90 229 266 185 329 107 332 58 346 284 261 279 282 273 55 15 181 170 163 168 172 175 178 182 183 179 174 176 176 177 179 177 177 174 174 173 171 173 176 175 174 174 178 180 31 44 44 50
105 95 294 264 64 266 23 346 318 56 276 321 20 266 305 315 320 208 170 171 172 174 178 180 181 186 184 179 179 177 180 182 180 180 178 175 176 177 179 181 180 180 180 187 221 13 42 28 18
127 48 323 276 323 253 305 357 306 282 264 261 285 295 288 311 326 174 157 171 174 177 182 181 187 186 187 183 183 180 181 185 184 183 181 179 180 182 185 187 183 185 183 187 206 153 49 25 18
92 116 226 221 272 272 278 294 287 292 293 274 282 280 292 316 170 169 184 172 184 179 182 183 190 189 188 186 184 184 183 185 186 186 184 185 184 185 188 190 189 191 197 190 194 203 356 358 16
94 196 220 258 263 254 252 297 242 273 272 222 258 283 295 291 205 180 235 241 197 191 180 185 189 192 190 184 185 188 186 188 188 187 189 186 188 190 196 194 191 194 199 187 240 271 293 293 296
300 238 235 255 278 320 291 254 258 242 253 247 257 264 275 277 250 207 187 209 211 201 197 186 189 192 189 187 188 188 192 192 193 192 190 191 194 191 196 196 193 193 202 190 229 261 266 242 258
217 266 283 271 282 254 261 250 251 249 263 265 258 269 271 264 258 221 201 190 190 200 198 200 193 192 186 191 189 191 192 197 198 197 193 195 201 196 194 189 191 211 224 226 237 245 181 193 246
247 265 274 262 255 259 258 263 240 224 231 258 254 267 276 262 250 244 206 188 177 185 192 197 195 196 191 193 191 192 194 200 202 200 198 200 205 203 200 194 201 226 217 242 230 188 177 192 261
276 307 319 258 245 251 243 284 223 245 244 249 275 281 288 280 271 222 209 192 179 177 184 190 192 196 205 204 199 196 196 202 206 204 201 204 207 207 200 200 208 217 203 176 162 171 170 173 216
341 321 339 280 305 264 116 277 295 258 256 292 284 264 291 293 279 273 181 179 184 173 178 189 184 198 212 208 207 202 202 204 205 207 206 205 207 212 218 219 208 201 184 174 167 163 160 152 220
326 268 284 306 226 281 162 289 260 296 306 284 261 244 272 289 297 283 197 178 175 176 176 183 181 193 206 205 208 209 210 210 208 207 208 209 210 212 222 214 206 199 187 179 175 178 197 50 345
281 281 278 276 255 296 287 273 283 272 244 256 248 252 245 267 269 275 246 198 190 182 181 174 183 188 204 204 210 210 213 216 215 211 210 207 209 211 217 218 211 197 189 183 174 156 111 54 20
282 277 265 276 279 282 272 272 279 287 237 250 247 237 233 253 260 274 271 219 192 186 179 174 170 184 192 198 203 210 210 214 218 217 212 210 210 211 212 202 192 191 190 177 165 152 105 40 22
265 273 281 283 281 259 272 267 270 269 262 246 248 240 217 240 260 263 260 245 188 192 180 172 172 172 192 204 200 203 213 217 218 219 214 213 211 209 210 203 189 183 182 174 176 176 146 55 37
270 260 275 279 296 275 280 280 261 258 254 257 248 237 215 216 240 243 251 200 176 188 205 175 169 182 193 197 195 197 202 204 210 214 214 207 208 210 205 195 187 180 177 166 158 156 127 118 51
288 250 271 282 296 299 195 293 286 276 266 244 227 215 216 212 226 225 221 183 175 178 190 189 182 179 185 183 188 187 185 181 196 203 205 200 204 200 196 190 182 174 162 154 135 117 96 92 127
262 292 280 276 274 295 281 263 269 297 273 269 249 219 205 209 222 215 192 188 178 165 169 174 175 177 176 180 181 181 178 187 184 190 188 188 184 184 183 176 171 165 156 130 119 101 84 80 105
279 305 294 279 274 228 274 188 283 343 276 292 246 217 205 210 226 219 192 182 177 167 163 163 164 169 173 167 164 163 162 163 166 165 166 167 169 166 166 167 165 155 138 125 105 98 99 100 94
24 332 310 343 327 252 230 228 254 288 323 300 275 224 216 208 212 209 172 177 170 169 167 160 165 167 169 167 164 165 157 170 167 169 168 166 161 162 159 163 156 144 132 118 115 114 106 99 94
307 320 306 304 302 296 295 238 272 323 333 324 330 298 207 197 195 188 185 175 179 174 171 176 174 175 167 166 166 166 161 170 165 173 170 164 162 157 157 155 146 134 129 119 115 108 100 101 94
354 315 255 267 241 268 216 275 292 330 335 343 349 15 1 318 191 181 180 183 190 177 181 182 176 171 166 163 162 160 167 169 165 188 176 167 155 157 154 151 144 137 125 118 116 110 116 111 100
220 311 289 230 304 292 286 287 323 339 335 337 339 350 340 303 259 165 180 187 187 196 187 179 180 174 178 182 181 179 168 162 162 174 172 158 156 152 148 148 141 130 122 121 123 122 116 106 97
342 316 282 268 250 286 302 330 335 332 326 324 326 321 299 282 240 178 175 190 191 180 182 172 168 167 174 181 187 182 166 169 167 163 163 155 151 149 147 144 135 129 125 130 126 118 113 106 101
308 306 305 287 315 286 267 307 299 326 333 333 314 305 277 258 217 186 161 162 170 161 157 164 160 158 164 162 155 163 169 165 159 151 150 150 148 147 146 138 130 127 124 123 120 115 113 101 82